Location: Étavigny
(49.1201°N, 2.9800°E)
Time: 09:27:34
(UTC+00:00)

SL-08 R/B - Pass Details

Date: 28 January 2023
Orbit: 672 x 737 km, 98.5° (Epoch: 23 March)

Event Time Altitude Azimuth Distance (km) Brightness Sun altitude
Rises 17:17:40 0° 16° (NNE) 3,160 6.3 -6.8°
Reaches altitude 10° 17:19:58 10° 20° (NNE) 2,241 5.6 -7.2°
Maximum altitude 17:24:53 66° 103° (ESE) 805 3.4 -7.9°
Drops below altitude 10° 17:29:48 10° 185° (S) 2,241 6.2 -8.7°
Sets 17:32:05 0° 188° (S) 3,159 7.1 -9.0°
